DateTimeUTC,F1_A11,F1_S11,BsB_S11,BsG_S11,BsR_S11,BbsB_S11,BbsG_S11,BbsR_S11,BaB_A11,BaG_A11,BaR_A11,Tu_S11,T_S11,Uu_S11,U_S11,P_S11,T1_A11
2021-06-06T04:00:00Z,00000200,20000000,,,,,,,0000.21,0000.36,0000.22,17.4,24.2,09.0,05.9,0674.4,30.9
2021-06-06T04:01:00Z,00000200,20000000,,,,,,,0000.05,-000.03,-000.18,17.4,24.2,09.0,05.9,0674.4,30.9
2021-06-06T04:02:00Z,00000200,20000000,,,,,,,-000.11,-000.14,-000.17,17.4,24.2,09.0,05.9,0674.4,30.9
2021-06-06T04:03:00Z,00000200,60000000,,,,,,,0000.37,0000.56,0000.61,17.4,24.2,09.0,05.9,0674.4,30.9
2021-06-06T04:04:00Z,00000200,40000000,0001.28,0000.64,0000.30,0000.57,0000.02,0000.14,0000.09,0000.35,0000.29,17.5,24.0,09.0,06.0,0675.3,30.9
2021-06-06T04:05:00Z,00000200,00000000,0001.15,0000.52,0000.36,0000.09,0000.11,0000.28,0000.63,0000.40,0000.62,17.5,24.0,09.2,06.2,0675.4,30.9
2021-06-06T04:06:00Z,00000200,00000000,0000.77,0000.57,0000.28,0000.73,0000.12,0000.04,0000.09,0000.22,-000.06,17.5,24.0,09.0,06.1,0675.4,30.9
2021-06-06T04:07:00Z,00000200,00000000,0000.90,0000.63,0000.32,0000.39,0000.20,0000.25,0000.54,0000.30,0000.30,17.5,24.0,09.2,06.2,0675.4,30.9
2021-06-06T04:08:00Z,00000200,00000000,0000.69,0000.79,0000.80,0000.53,0000.31,0000.31,0000.60,0000.55,0000.18,17.5,23.9,09.2,06.2,0675.4,30.9
2021-06-06T04:09:00Z,00000200,00000000,0001.11,0000.60,0000.22,0000.61,0000.06,0000.13,0000.25,0000.02,0000.02,17.5,23.9,09.2,06.2,0675.4,30.9
2021-06-06T04:10:00Z,00000200,00000000,0000.53,0000.62,0000.14,0000.18,-000.01,0000.04,0000.28,0000.36,0000.38,17.5,23.9,09.3,06.3,0675.4,30.9
2021-06-06T04:11:00Z,00000200,00000000,0001.46,0000.67,-000.01,0000.59,0000.18,-000.06,-000.07,-000.12,-000.13,17.5,23.9,09.3,06.3,0675.4,30.9
2021-06-06T04:12:00Z,00000200,00000000,0000.74,0000.36,0000.58,0000.39,0000.05,0000.05,0000.06,0000.03,0000.15,17.5,23.9,09.3,06.2,0675.4,30.9
2021-06-06T04:13:00Z,00000200,00000000,0000.69,0000.67,0000.47,-000.14,0000.01,0000.00,0000.63,0000.61,0000.43,17.5,23.9,09.1,06.1,0675.4,30.9
2021-06-06T04:14:00Z,00000200,00000000,0001.14,0000.51,0000.24,-000.15,0000.25,0000.05,0000.40,0000.37,0000.43,17.5,23.9,09.1,06.2,0675.4,30.9
2021-06-06T04:15:00Z,00000200,00000000,0001.48,0000.82,0000.42,0000.62,0000.06,0000.20,-000.13,0000.03,-000.27,17.5,23.9,09.0,06.1,0675.4,30.9
2021-06-06T04:16:00Z,00000200,00000000,0001.13,0000.36,0000.13,-000.27,0000.25,0000.22,0000.62,0000.31,0000.33,17.5,23.9,09.0,06.1,0675.4,30.9
2021-06-06T04:17:00Z,00000200,00000000,0001.34,0000.57,0000.54,0000.60,0000.24,0000.34,0000.02,0000.12,0000.28,17.5,23.9,09.0,06.1,0675.4,30.9
2021-06-06T04:18:00Z,00000200,00000000,0000.77,0000.83,0000.57,0000.82,0000.08,0000.19,0000.51,0000.59,0000.41,17.5,23.9,08.9,06.0,0675.4,30.9
2021-06-06T04:19:00Z,00000200,00000000,0001.38,0000.21,0000.33,0000.99,-000.12,0000.32,0000.08,-000.10,-000.12,17.5,23.9,08.9,06.0,0675.4,30.9
2021-06-06T04:20:00Z,00000200,00000000,0001.24,0000.30,0000.21,0000.86,-000.02,-000.11,0000.45,0000.79,0000.44,17.5,23.9,08.9,06.0,0675.4,30.9
2021-06-06T04:21:00Z,00000200,00000000,0000.69,0000.30,0000.19,0000.58,0000.22,0000.08,0000.23,-000.09,0000.12,17.5,23.9,08.9,06.0,0675.4,30.9
2021-06-06T04:22:00Z,00000200,00000000,0001.70,0000.45,0000.50,0000.33,0000.29,0000.04,0000.38,0000.16,-000.06,17.5,23.9,08.9,06.0,0675.4,30.9
2021-06-06T04:23:00Z,00000200,00000000,0000.74,0000.49,0000.33,0000.70,0000.15,-000.10,0000.23,0000.36,0000.62,17.5,23.9,08.9,06.0,0675.4,30.9
2021-06-06T04:24:00Z,00000200,00000000,0001.62,0000.79,0000.18,0000.66,0000.16,0000.14,0000.21,0000.37,0000.01,17.6,23.9,08.9,06.0,0675.4,30.9
2021-06-06T04:25:00Z,00000200,00000000,0001.23,0000.61,0000.36,0000.21,0000.22,0000.14,0000.28,0000.15,0000.08,17.6,23.9,08.8,06.0,0675.4,30.9
2021-06-06T04:26:00Z,00000200,00000000,0001.49,0000.47,0000.36,0000.23,0000.28,0000.04,0000.18,0000.42,0000.48,17.6,23.9,08.7,05.9,0675.4,30.9
2021-06-06T04:27:00Z,00000200,00000000,0001.32,0000.81,0000.27,0000.04,-000.05,0000.04,0000.86,0000.44,0000.33,17.6,23.9,08.8,05.9,0675.4,30.9
2021-06-06T04:28:00Z,00000200,00000000,0002.07,0000.57,0000.24,0000.67,-000.11,0000.01,0000.13,0000.00,-000.04,17.6,23.9,08.6,05.8,0675.4,30.9
2021-06-06T04:29:00Z,00000200,00000000,0001.20,0000.72,0000.25,0000.20,0000.01,-000.13,0000.15,0000.43,0000.42,17.6,23.9,08.7,05.9,0675.4,30.9
2021-06-06T04:30:00Z,00000200,00000000,0000.57,0000.73,0000.22,0000.31,0000.14,-000.00,0000.52,0000.34,-000.02,17.6,23.9,08.7,05.9,0675.4,30.9
2021-06-06T04:31:00Z,00000200,00000000,0000.67,0000.82,0000.67,0000.25,0000.09,0000.08,0000.04,-000.20,0000.30,17.6,23.9,08.6,05.8,0675.5,30.9
2021-06-06T04:32:00Z,00000200,00000000,0001.65,0000.77,0000.35,-000.17,0000.13,-000.00,0000.29,0000.89,0000.02,17.6,23.9,08.7,05.9,0675.5,30.9
2021-06-06T04:33:00Z,00000200,00000000,0001.39,0001.06,0000.20,0000.47,0000.35,-000.20,0000.32,0000.05,0000.26,17.6,23.9,08.6,05.8,0675.4,30.9
2021-06-06T04:34:00Z,00000200,00000000,0000.90,0000.89,0000.22,0000.38,0000.36,0000.20,0000.51,0000.33,0000.52,17.6,23.9,08.6,05.8,0675.4,30.9
2021-06-06T04:35:00Z,00000200,00000000,0001.75,0000.81,0000.26,0000.87,0000.25,0000.10,0000.43,0000.20,0000.38,17.6,23.9,08.5,05.8,0675.4,31.0
2021-06-06T04:36:00Z,00000200,00000000,0000.28,0001.06,0000.38,0000.75,0000.09,0000.04,0000.18,0000.15,0000.06,17.6,23.9,08.6,05.8,0675.4,30.9
2021-06-06T04:37:00Z,00000200,00000000,0001.82,0000.70,0000.61,0000.24,0000.16,0000.47,0000.12,0000.34,0000.31,17.6,23.9,08.4,05.7,0675.4,30.9
2021-06-06T04:38:00Z,00000200,00000000,0001.56,0000.78,0000.48,0000.23,0000.14,0000.19,0000.69,0000.47,0000.29,17.6,23.9,08.5,05.7,0675.4,30.9
2021-06-06T04:39:00Z,00000200,00000000,0001.62,0001.00,0000.63,-000.08,0000.39,0000.17,0000.17,0000.32,-000.01,17.6,23.9,08.4,05.7,0675.4,30.9
2021-06-06T04:40:00Z,00000200,00000000,0000.86,0001.10,0000.49,0000.15,0000.37,0000.07,0000.11,0000.42,0000.37,17.6,23.9,08.4,05.7,0675.4,30.9
2021-06-06T04:41:00Z,00000200,00000000,0001.41,0000.77,0000.43,0000.24,0000.18,0000.03,0000.65,0000.34,0000.35,17.6,23.9,08.3,05.6,0675.4,30.9
2021-06-06T04:42:00Z,00000200,00000000,0001.48,0000.91,0000.56,0000.52,0000.13,0000.09,0000.56,0000.16,0000.16,17.6,23.9,08.4,05.7,0675.4,30.9
2021-06-06T04:43:00Z,00000200,00000000,0001.33,0001.03,0000.34,0000.55,0000.13,-000.02,-000.20,0000.29,0000.31,17.6,23.9,08.3,05.6,0675.4,30.9
2021-06-06T04:44:00Z,00000200,00000000,0001.71,0001.09,0000.23,0000.47,0000.16,0000.30,0000.40,0000.37,0000.23,17.6,23.9,08.3,05.6,0675.4,30.9
2021-06-06T04:45:00Z,00000200,00000000,0002.64,0000.98,0000.83,0000.70,0000.07,0000.32,0000.43,0000.30,0000.02,17.6,23.9,08.3,05.6,0675.4,30.9
2021-06-06T04:46:00Z,00000200,00000000,0001.44,0001.40,0000.24,0000.55,0000.16,0000.07,0000.67,0000.40,0000.36,17.6,23.9,08.2,05.6,0675.4,30.9
2021-06-06T04:47:00Z,00000200,00000000,0001.86,0001.19,0000.64,0000.15,0000.29,0000.21,0000.07,0000.14,0000.47,17.6,23.9,08.1,05.5,0675.4,30.9
2021-06-06T04:48:00Z,00000200,00000000,0000.95,0000.74,0000.31,-000.03,-000.06,-000.11,0000.08,0000.16,-000.08,17.6,23.9,08.1,05.5,0675.4,31.0
2021-06-06T04:49:00Z,00000200,00000000,0001.43,0000.78,0000.53,0000.68,0000.23,0000.09,0000.56,0000.25,0000.33,17.6,23.9,08.2,05.6,0675.4,30.9
2021-06-06T04:50:00Z,00000200,00000000,0001.87,0001.12,0000.36,0000.17,0000.06,0000.35,0000.60,0000.48,0000.54,17.6,23.9,08.1,05.5,0675.5,30.9
2021-06-06T04:51:00Z,00000200,00000000,0001.18,0000.81,0000.68,0000.31,0000.18,0000.27,-000.05,0000.46,0000.33,17.6,23.9,08.0,05.4,0675.5,30.9
2021-06-06T04:52:00Z,00000200,00000000,0001.03,0000.85,0000.26,0000.30,0000.18,0000.05,0000.67,0000.14,-000.06,17.6,23.9,08.0,05.4,0675.5,30.9
2021-06-06T04:53:00Z,00000200,00000000,0002.13,0001.03,0000.47,0000.09,0000.32,0000.01,0000.26,0000.68,0000.71,17.6,23.9,07.9,05.4,0675.5,30.9
2021-06-06T04:54:00Z,00000200,00000000,0001.18,0000.89,0000.59,0000.31,-000.07,0000.19,0000.23,0000.33,0000.17,17.6,23.9,08.0,05.4,0675.5,30.9
2021-06-06T04:55:00Z,00000200,00000000,0001.26,0000.96,0000.90,0000.74,0000.33,0000.45,0000.36,0000.04,0000.14,17.6,23.9,07.9,05.4,0675.5,30.9
2021-06-06T04:56:00Z,00000200,00000000,0001.67,0001.04,0000.68,0000.31,0000.09,0000.13,0000.32,0000.16,-000.10,17.6,23.9,07.9,05.3,0675.5,30.9
2021-06-06T04:57:00Z,00000200,40000000,,,,,,,0000.14,0000.37,0000.57,17.7,24.0,07.1,04.8,0675.4,30.9
2021-06-06T04:58:00Z,00000200,60000000,,,,,,,0000.05,-000.13,-000.21,17.4,24.1,08.3,05.4,0674.5,31.0
2021-06-06T04:59:00Z,00000200,20000000,,,,,,,-000.36,-000.30,-000.23,17.4,24.2,08.1,05.3,0674.5,31.0
